Home   Weather   Húsavík   Past weeks
Flag for Iceland

Past Weather in Húsavík, Iceland — Yesterday and Last 2 Weeks

Now
23 °F

Clear.


Feels Like: 23 °F
Forecast: 43 / 35 °F
Wind: 2 mph from South

Location: Akureyri Airport

Current Time: Oct 14, 2019 at 8:49:48 am

Latest Report: Oct 14, 2019 at 8:00 am


Visibility: 10 mi

Pressure: 29.68 "Hg

Humidity: 93%

Dew Point: 21 °F

Location of HúsavíkLocation

Past Weather in Húsavík — Graph

°F

Húsavík Temperature Yesterday

Maximum temperature yesterday: 34 °F (at 1:00 pm)
Minimum temperature yesterday: 21 °F (at 3:00 am)
Average temperature yesterday: 26 °F

High & Low Weather Summary for the Past Weeks

 TemperatureHumidityPressure
High59 °F (Oct 6, 4:00 pm)100% (Sep 30, 9:00 am)30.21 "Hg (Sep 30, 9:00 am)
Low21 °F (Oct 13, 3:00 am)41% (Oct 4, 3:00 pm)28.88 "Hg (Oct 7, 9:00 pm)
Average40 °F76%29.73 "Hg
* Reported Sep 29 7:00 am — Oct 14 7:00 am, Húsavík. Weather by CustomWeather, © 2019

Note: Actual official high and low records may vary slightly from our data, if they occured in-between our weather recording intervals... More about our weather records

Advertising

Húsavík Weather History for the Previous 24 Hours

Scroll right to see more
 ConditionsComfort  
Time TempWeatherWind HumidityBarometerVisibility
7:00 am
Mon, Oct 14
23 °FClear.No wind93%29.68 "Hg10 mi
6:00 am23 °FClear.2 mph93%29.68 "Hg10 mi
5:25 am23 °FClear.2 mph93%29.68 "Hg10 mi
4:00 am21 °FClear.2 mph100%29.71 "Hg10 mi
3:00 am23 °FClear.2 mph93%29.71 "Hg10 mi
2:00 am23 °FClear.2 mph93%29.74 "Hg10 mi
1:00 am23 °FClear.2 mph93%29.74 "Hg10 mi
12:03 am23 °FClear.No wind93%29.74 "Hg10 mi
11:00 pm
Sun, Oct 13
23 °FClear.2 mph93%29.74 "Hg10 mi
10:00 pm25 °FClear.No wind93%29.74 "Hg10 mi
9:00 pm27 °FClear.2 mph86%29.77 "Hg10 mi
8:00 pm25 °FClear.5 mph93%29.77 "Hg10 mi
7:00 pm28 °FClear.No wind93%29.77 "Hg10 mi
6:00 pm30 °FClear.1 mph86%29.74 "Hg10 mi
5:00 pm34 °FSunny.2 mph75%29.74 "Hg10 mi
4:00 pm34 °FSunny.2 mph70%29.74 "Hg10 mi
3:00 pm34 °FSunny.1 mph70%29.74 "Hg10 mi
2:00 pm34 °FSunny.No wind70%29.74 "Hg10 mi
1:00 pm34 °FSunny.2 mph70%29.77 "Hg10 mi
12:00 pm30 °FSunny.2 mph86%29.77 "Hg10 mi
11:00 am27 °FPassing clouds.3 mph86%29.77 "HgN/A
10:00 am23 °FSunny.2 mph93%29.77 "Hg10 mi
9:00 am21 °FSunny.2 mph93%29.77 "Hg10 mi
8:00 am21 °FSunny.2 mph93%29.77 "Hg10 mi
Weather by CustomWeather, © 2019

See weather overview